Regional Weather Roundup
Issued by NWS

Home | Current Version | Previous Version | Graphics & Text | Print | Product List | Glossary On
Versions: 1 2 3 4 5 6 7 8 9 10 11 12 13 14 15 16 17 18 19 20 21 22 23 24 25 26 27 28 29 30 31 32 33 34 35 36 37 38 39 40 41 42 43 44 45 46 47 48 49 50
000
ASUS44 KMEG 282300
RWRTN
TENNESSEE HOURLY STATE WEATHER ROUNDUP
NATIONAL WEATHER SERVICE MEMPHIS TN
600 PM CDT WED SEP 28 2016

TNZ002-004-019-021-049-052-054-088>092-290000-
WEST TENNESSEE

CITY           SKY/WX    TMP DP  RH WIND       PRES   REMARKS
MEMPHIS INTL   PTCLDY    82  55  39 N16G24    29.91R
NWS MEMPHIS      N/A     82 N/A N/A MISG        N/A
JACKSON        CLOUDY   N/A N/A N/A N10       29.92R
DYERSBURG      CLEAR    N/A N/A N/A MISG        N/A
PARIS          CLEAR     68  48  49 N7        29.96R
LEXINGTON      CLOUDY    73  54  49 N14       29.92R
$$

TNZ008-025-027-028-033-062-065-066-290000-
NORTH MIDDLE TENNESSEE

CITY           SKY/WX    TMP DP  RH WIND       PRES   REMARKS
NASHVILLE      CLOUDY    70  54  56 N15G25    29.93R
CLARKSVILLE    CLOUDY    69  50  50 N8        29.93R
SMYRNA         CLOUDY    72  57  59 N20       29.92R
COOKEVILLE     MOCLDY    77  48  36 SW5       29.89R
CROSSVILLE     PTCLDY    74  41  30 W7        29.93R
$$

TNZ061-075-076-078-094-096-097-290000-
SOUTH MIDDLE TENNESSEE

CITY           SKY/WX    TMP DP  RH WIND       PRES   REMARKS
SHELBYVILLE    MOCLDY    81  48  32 S8        29.90R
$$

TNZ017-018-042-046-047-290000-
NORTHEAST TENNESSEE

CITY           SKY/WX    TMP DP  RH WIND       PRES   REMARKS
TRI CITIES     PTCLDY    75  45  34 W6        29.90R
$$

TNZ012-013-036-069-073-074-290000-
CENTRAL EAST TENNESSEE

CITY           SKY/WX    TMP DP  RH WIND       PRES   REMARKS
KNOXVILLE      PTCLDY    77  44  30 SW12      29.88S
OAK RIDGE      CLEAR     80  45  28 S6        29.89S
GATLINBURG     CLEAR     79  41  25 SW6       29.88S
$$

TNZ083-085-099-290000-
SOUTHEAST TENNESSEE

CITY           SKY/WX    TMP DP  RH WIND       PRES   REMARKS
CHATTANOOGA    PTCLDY    82  41  23 SW5       29.89S
$$

SKY/WX REPORTED AS FAIR MEANS FEW OR NO CLOUDS BELOW
12 THOUSAND FEET.





USA.gov is the U.S. government's official web portal to all federal, state and local government web resources and services.